Flight Track Log - Related Links

Times and Time Zones

All times are in EDT time to prevent confusion due to time zone crossing. See the SWA232 flight status page for this flight to view local times or setup timezone preferences in your user account.

Time Position Orientation Groundspeed Altitude Reporting Facility
EDT Latitude Longitude Course Direction KTS MPH feet Rate Location/Type
Thu 11:54:33 PM 41.7833 -87.8167 253° West 207 238 2,900  Level Chicago TRACON
Thu 11:55:11 PM 41.7717 -87.8678 253° West 208 239 3,200 667 Climbing Chicago Center
Thu 11:56:12 PM 41.7603 -87.9456 259° West 223 257 4,000 443 Climbing Chicago Center
Thu 11:57:13 PM 41.7567 -88.0244 267° West 218 251 4,100 1,475 Climbing Chicago Center
Thu 11:58:14 PM 41.7517 -88.1139 266° West 235 270 7,000 3,393 Climbing Chicago Center
Thu 11:59:15 PM 41.7692 -88.2069 284° West 260 299 11,000 2,459 Climbing Chicago Center
Fri 12:00:16 AM 41.7614 -88.3064 264° West 276 318 12,000 595 Climbing Chicago Center
Fri 12:01:16 AM 41.7514 -88.4053 262° West 272 313 12,200 992 Climbing Chicago Center
Fri 12:02:17 AM 41.7408 -88.5208 263° West 317 365 14,000 1,869 Climbing Chicago Center
Fri 12:03:18 AM 41.7308 -88.6781 265° West 357 411 16,000 1,328 Climbing Chicago Center
Fri 12:04:19 AM 41.7250 -88.8097 267° West 360 414 16,700 1,230 Climbing Chicago Center
Fri 12:05:20 AM 41.7197 -88.9419 267° West 357 411 18,500 2,083 Climbing Chicago Center
Fri 12:06:20 AM 41.7125 -89.0794 266° West 371 427 20,900 1,438 Climbing Chicago Center
Fri 12:07:21 AM 41.7064 -89.2217 267° West 385 443 21,400 1,475 Climbing Chicago Center
Fri 12:08:22 AM 41.6972 -89.3625 265° West 383 441 23,900 2,281 Climbing Chicago Center
Fri 12:09:22 AM 41.6872 -89.5058 265° West 389 448 26,000 2,182 Climbing Chicago Center
Fri 12:10:23 AM 41.6750 -89.6464 263° West 406 467 28,300 2,557 Climbing Chicago Center
Fri 12:11:24 AM 41.6697 -89.7875 267° West 388 447 31,200 1,820 Climbing Chicago Center
Fri 12:12:25 AM 41.6683 -89.9483 269° West 366 421 32,000 397 Climbing Chicago Center
Fri 12:13:25 AM 41.6656 -90.0814 268° West 361 415 32,000  Level Chicago Center
Fri 12:14:26 AM 41.6622 -90.2175 268° West 366 421 32,000  Level Chicago Center
Fri 12:15:27 AM 41.6592 -90.3536 268° West 367 422 32,000  Level Chicago Center
Fri 12:16:27 AM 41.6553 -90.4897 268° West 369 425 32,000  Level Chicago Center
Fri 12:17:28 AM 41.6514 -90.6264 268° West 369 425 32,000  Level Chicago Center
Fri 12:18:29 AM 41.6481 -90.7522 268° West 366 421 32,000  Level Chicago Center
Fri 12:19:29 AM 41.6444 -90.8836 268° West 360 414 32,000  Level Chicago Center
Fri 12:20:30 AM 41.6414 -91.0181 268° West 363 418 32,000  Level Chicago Center
Fri 12:21:30 AM 41.6375 -91.1500 268° West 358 412 32,000  Level Chicago Center
Fri 12:22:31 AM 41.6319 -91.3078 267° West 358 412 32,000  Level Chicago Center
Fri 12:23:32 AM 41.6275 -91.4400 267° West 358 412 32,000  Level Chicago Center
Fri 12:24:32 AM 41.6242 -91.5694 268° West 354 407 32,000 -496 Level Chicago Center
Fri 12:25:33 AM 41.6194 -91.7031 267° West 358 412 31,000 -992 Descending Chicago Center
Fri 12:26:33 AM 41.6144 -91.8403 267° West 369 425 30,000 -942 Descending Chicago Center
Fri 12:27:34 AM 41.6089 -91.9808 267° West 379 436 29,100 -942 Descending Chicago Center
Fri 12:28:34 AM 41.6036 -92.1231 267° West 386 444 28,100 -992 Descending Chicago Center
Fri 12:29:35 AM 41.5978 -92.2656 267° West 387 445 27,100 -992 Descending Chicago Center
Fri 12:30:35 AM 41.5933 -92.4083 268° West 388 447 26,100 -1,289 Descending Chicago Center
Fri 12:31:36 AM 41.5872 -92.5536 267° West 392 451 24,500 -1,623 Descending Chicago Center
Fri 12:32:37 AM 41.5808 -92.6972 267° West 391 450 22,800 -1,934 Descending Chicago Center
Fri 12:33:37 AM 41.5731 -92.8381 266° West 388 447 20,600 -2,250 Descending Chicago Center
Fri 12:34:37 AM 41.5658 -92.9744 266° West 378 435 18,300 -2,777 Descending Chicago Center
Fri 12:35:38 AM 41.5806 -93.1328 277° West 364 419 15,000 -3,025 Descending Chicago Center
Fri 12:36:38 AM 41.5967 -93.2644 279° West 362 417 12,200 -2,479 Descending Chicago Center
Fri 12:37:39 AM 41.6158 -93.3892 282° West 355 409 10,000 -1,440 Descending Chicago Center
Fri 12:38:18 AM 41.6361 -93.4489 294° West 300 345 9,800 -1,077 Descending Minneapolis Center
Fri 12:38:57 AM 41.6408 -93.5261 275° West 276 318 8,600 -1,620 Descending Minneapolis Center
Fri 12:39:58 AM 41.6575 -93.6189 284° West 261 300 7,100 -1,587 Descending Minneapolis Center
Fri 12:40:58 AM 41.6892 -93.7028 297° West 259 298 5,400 -1,537 Descending Minneapolis Center
Fri 12:41:59 AM 41.7239 -93.7747 303° West 240 276 4,000 -1,131 Descending Minneapolis Center
Fri 12:43:00 AM 41.6697 -93.7983 198° South 207 238 3,100 -689 Descending Minneapolis Center
Fri 12:44:01 AM 41.6219 -93.7794 164° South 185 213 2,600 -507 Descending Minneapolis Center
Fri 12:45:22 AM 41.5833 -93.7128 128° Southeast 162 186 1,900 -632 Descending Minneapolis Center
Fri 12:46:14 AM 41.5539 -93.6864 146° Southeast 154 177 1,200 -531 Descending Minneapolis Center
Fri 12:47:15 AM 41.5286 -93.6483 132° Southeast 148 170 900 -295 Descending Minneapolis Center

Login

Don't have an account? Register now (free) for customized features, flight alerts, and more!